Regional Weather Roundup
Issued by NWS Bismarck, ND

Home | Current Version | Previous Version | Text Only | Print | Product List | Glossary On
Versions: 1 2 3 4 5 6 7 8 9 10 11 12 13 14 15 16 17 18 19 20 21 22 23 24 25 26 27 28 29 30 31 32 33 34 35 36 37 38 39 40 41 42 43 44 45 46 47 48 49 50
000
ASUS43 KBIS 230259
RWRBIS

NWR BROADCAST TEXT
NATIONAL WEATHER SERVICE BISMARCK ND
900 PM CST MON DEC 22 2014

NOTE: "FAIR" INDICATES FEW OR NO CLOUDS BELOW 12,000 FEET WITH NO
SIGNIFICANT WEATHER AND/OR OBSTRUCTIONS TO VISIBILITY.


CITY           SKY/WX    TMP DP  RH WIND       PRES   REMARKS
WILLISTON      CLOUDY    27  22  81 NW15      29.87R WCI  15
MINOT          CLOUDY    30  28  92 NW14      29.78R FOG     WCI  19
MINOT AFB      NOT AVBL
BISMARCK       LGT SNOW  30  28  92 N17       29.71R FOG     WCI  18
DICKINSON      NOT AVBL
GARRISON         N/A     28  27  96 N18       29.75R WCI  15
HETTINGER ARPT LGT SNOW  24  20  84 NW23G29   29.75R FOG     WCI   9
JAMESTOWN      NOT AVBL
CARRINGTON     LGT SNOW  32  32 100 MISG      29.68R
CROSBY         FLURRIES  25  25 100 MISG      29.88R
OAKES          LGT SNOW  32  32 100 NE13      29.60R
WATFORD CITY   CLOUDY    25  25 100 NW14G21   29.82R FOG     WCI  13
$$

CITY           SKY/WX    TMP DP  RH WIND       PRES   REMARKS
GRAND FORKS    DRIZZLE   35  35 100 NE6       29.70R FOG
GRAND FORKS AF NOT AVBL
DEVILS LAKE    CLOUDY    34  30  86 NE13      29.71R
FARGO          LGT RAIN  36  34  92 NE7       29.66R
GWINNER        CLOUDY    34  34 100 NE10      29.62R
$$

CITY           SKY/WX    TMP DP  RH WIND       PRES   REMARKS
ABERDEEN       LGT RAIN  35  33  92 NE12      29.55R
MOBRIDGE       LGT SNOW  32  29  88 N21G28    29.58R FOG     WCI  20
BUFFALO          N/A     24  19  81 NW26G37   29.69R WCI   8
RAPID CITY     LGT SNOW  30  26  85 N32G44    29.67R VSB 1   WCI  14
GLASGOW        CLOUDY    29  24  82 NW18      29.96R WCI  16
SIDNEY         CLOUDY    25  21  86 NW18G24   29.90R WCI  11
WOLF POINT     CLOUDY    26  19  74 NW9       29.96R WCI  17
GLENDIVE       CLOUDY    23  18  80 NW17G24   29.90R WCI   9
MILES CITY     CLOUDY    32  26  78 N18       29.92R
BAKER          LGT SNOW  23  20  88 NW18G26   29.84R FOG     WCI   9
$$

CITY           SKY/WX    TMP DP  RH WIND       PRES   REMARKS
BILLINGS       MOCLDY    32  21  64 NW10      30.03R
GREAT FALLS    CLOUDY    33  24  69 W7        30.10R
$$




USA.gov is the U.S. government's official web portal to all federal, state and local government web resources and services.